EN

Hourly Weather Tryas

Today, 17 April, Saturday

Time Temperature Precipitation Wind Pressure Humidity
00:00 +6°C° 0 mm 2 mps 743 mmHg 84%
01:00 +6°C° 0 mm 2 mps 743 mmHg 86%
02:00 +5°C° 0 mm 2 mps 743 mmHg 87%
03:00 +5°C° 0 mm 2 mps 743 mmHg 87%
04:00 +5°C° 0 mm 2 mps 743 mmHg 86%
05:00 +5°C° 0 mm 2 mps 743 mmHg 86%
06:00 +6°C° 0.8 mm 2 mps 743 mmHg 87%
07:00 +6°C° 0.8 mm 2 mps 743 mmHg 87%
08:00 +6°C° 0 mm 2 mps 743 mmHg 88%
09:00 +6°C° 1.7 mm 2 mps 743 mmHg 89%
10:00 +6°C° 1.7 mm 2 mps 743 mmHg 89%
11:00 +7°C° 1.7 mm 1 mps 743 mmHg 89%
12:00 +7°C° 0.2 mm 1 mps 743 mmHg 89%
13:00 +7°C° 0.2 mm 1 mps 743 mmHg 88%
14:00 +6°C° 0 mm 2 mps 743 mmHg 89%
15:00 +6°C° 0.1 mm 2 mps 743 mmHg 87%
16:00 +6°C° 0.1 mm 2 mps 742 mmHg 85%
17:00 +7°C° 0.1 mm 2 mps 742 mmHg 83%
18:00 +6°C° 0.2 mm 2 mps 742 mmHg 86%
19:00 +7°C° 0.2 mm 1 mps 742 mmHg 88%
20:00 +7°C° 0.2 mm 1 mps 743 mmHg 90%
21:00 +7°C° 0.1 mm 1 mps 743 mmHg 90%
22:00 +6°C° 0.1 mm 1 mps 742 mmHg 90%
23:00 +6°C° 0.1 mm 1 mps 742 mmHg 90%

Tomorrow, 18 April, Sunday

Time Temperature Precipitation Wind Pressure Humidity
00:00 +6°C° 0.2 mm 1 mps 742 mmHg 91%
01:00 +5°C° 0.2 mm 2 mps 742 mmHg 92%
02:00 +5°C° 0.2 mm 2 mps 742 mmHg 93%
03:00 +5°C° 0.1 mm 2 mps 742 mmHg 93%
04:00 +5°C° 0.1 mm 2 mps 742 mmHg 92%
05:00 +4°C° 0.1 mm 2 mps 742 mmHg 92%
06:00 +5°C° 0.1 mm 2 mps 742 mmHg 88%
07:00 +6°C° 0.1 mm 2 mps 742 mmHg 84%
08:00 +6°C° 0.1 mm 2 mps 743 mmHg 80%
09:00 +7°C° 0.3 mm 2 mps 743 mmHg 75%
10:00 +8°C° 0.3 mm 2 mps 743 mmHg 71%
11:00 +9°C° 0.3 mm 2 mps 743 mmHg 67%
12:00 +9°C° 0.4 mm 2 mps 743 mmHg 66%
13:00 +9°C° 0.4 mm 2 mps 743 mmHg 66%
14:00 +9°C° 0.4 mm 3 mps 743 mmHg 65%
15:00 +9°C° 0.2 mm 2 mps 743 mmHg 67%
16:00 +8°C° 0.2 mm 2 mps 743 mmHg 69%
17:00 +8°C° 0.2 mm 2 mps 743 mmHg 71%
18:00 +7°C° 0.3 mm 2 mps 743 mmHg 77%
19:00 +7°C° 0.3 mm 2 mps 743 mmHg 82%
20:00 +6°C° 0.3 mm 2 mps 743 mmHg 87%
21:00 +6°C° 0.7 mm 2 mps 743 mmHg 89%
22:00 +5°C° 0.7 mm 2 mps 743 mmHg 90%
23:00 +5°C° 0.7 mm 2 mps 743 mmHg 92%

Day after tomorrow, 19 April, Monday

Time Temperature Precipitation Wind Pressure Humidity
00:00 +5°C° 0.4 mm 2 mps 743 mmHg 93%
01:00 +5°C° 0.4 mm 2 mps 742 mmHg 94%
02:00 +4°C° 0.4 mm 2 mps 742 mmHg 95%
03:00 +5°C° 0.4 mm 2 mps 742 mmHg 95%
04:00 +5°C° 0.4 mm 2 mps 742 mmHg 95%
05:00 +5°C° 0.4 mm 2 mps 742 mmHg 95%
06:00 +5°C° 0.3 mm 2 mps 742 mmHg 94%
07:00 +5°C° 0.3 mm 2 mps 742 mmHg 93%
08:00 +5°C° 0.3 mm 2 mps 742 mmHg 92%
09:00 +5°C° 0.1 mm 3 mps 742 mmHg 86%
10:00 +7°C° 0.1 mm 3 mps 742 mmHg 80%
11:00 +9°C° 0.1 mm 3 mps 742 mmHg 74%
12:00 +9°C° 0.1 mm 3 mps 742 mmHg 73%
13:00 +8°C° 0.1 mm 4 mps 742 mmHg 73%
14:00 +10°C° 0.1 mm 4 mps 742 mmHg 72%
15:00 +8°C° 0.2 mm 4 mps 742 mmHg 76%
16:00 +8°C° 0.2 mm 4 mps 742 mmHg 80%
17:00 +7°C° 0.2 mm 5 mps 742 mmHg 83%
18:00 +6°C° 0.1 mm 5 mps 742 mmHg 86%
19:00 +6°C° 0.1 mm 5 mps 742 mmHg 89%
20:00 +5°C° 0.1 mm 5 mps 742 mmHg 93%
21:00 +5°C° 0 mm 5 mps 742 mmHg 93%
22:00 +5°C° 0 mm 4 mps 742 mmHg 93%
23:00 +5°C° 0 mm 4 mps 741 mmHg 94%

20 April, Tuesday

Time Temperature Precipitation Wind Pressure Humidity
00:00 +5°C° 0 mm 3 mps 741 mmHg 93%
01:00 +5°C° 0 mm 3 mps 741 mmHg 91%
02:00 +5°C° 0 mm 3 mps 741 mmHg 90%
03:00 +5°C° 0 mm 3 mps 741 mmHg 92%
04:00 +4°C° 0 mm 3 mps 741 mmHg 93%
05:00 +4°C° 0 mm 3 mps 740 mmHg 94%
06:00 +5°C° 0 mm 4 mps 740 mmHg 92%
07:00 +6°C° 0 mm 5 mps 740 mmHg 89%
08:00 +7°C° 0 mm 5 mps 740 mmHg 87%
09:00 +8°C° 0.2 mm 6 mps 739 mmHg 85%
10:00 +8°C° 0.2 mm 7 mps 739 mmHg 83%
11:00 +9°C° 0.2 mm 8 mps 738 mmHg 81%
12:00 +9°C° 0.1 mm 8 mps 738 mmHg 83%
13:00 +7°C° 0.1 mm 8 mps 737 mmHg 85%
14:00 +7°C° 0.1 mm 8 mps 736 mmHg 86%
15:00 +6°C° 2.6 mm 9 mps 735 mmHg 88%
16:00 +5°C° 2.6 mm 9 mps 734 mmHg 90%
17:00 +3°C° 2.6 mm 9 mps 733 mmHg 92%
18:00 +3°C° 3.6 mm 10 mps 731 mmHg 92%
19:00 +3°C° 3.6 mm 10 mps 730 mmHg 92%
20:00 +3°C° 3.6 mm 10 mps 729 mmHg 92%
21:00 +5°C° 0.5 mm 9 mps 728 mmHg 92%
22:00 +6°C° 0.5 mm 8 mps 727 mmHg 93%
23:00 +8°C° 0.5 mm 7 mps 726 mmHg 93%

21 April, Wednesday

Time Temperature Precipitation Wind Pressure Humidity
00:00 +7°C° 0.3 mm 8 mps 726 mmHg 91%
01:00 +7°C° 0.3 mm 8 mps 726 mmHg 89%
02:00 +7°C° 0.3 mm 8 mps 726 mmHg 88%
03:00 +5°C° 0.1 mm 8 mps 726 mmHg 90%
04:00 +4°C° 0.1 mm 8 mps 726 mmHg 92%
05:00 +1°C° 0.1 mm 8 mps 727 mmHg 94%
06:00 +1°C° 0.2 mm 8 mps 727 mmHg 95%
07:00 +1°C° 0.2 mm 9 mps 728 mmHg 95%
08:00 0°C° 0.2 mm 9 mps 729 mmHg 95%
09:00 +1°C° 0.1 mm 9 mps 730 mmHg 94%
10:00 +1°C° 0.1 mm 9 mps 732 mmHg 92%
11:00 +2°C° 0.1 mm 9 mps 733 mmHg 90%
12:00 +2°C° 0 mm 8 mps 734 mmHg 88%
13:00 +2°C° 0 mm 8 mps 736 mmHg 87%
14:00 +4°C° 0 mm 7 mps 737 mmHg 85%
15:00 +4°C° 0 mm 7 mps 738 mmHg 85%
16:00 +4°C° 0 mm 6 mps 738 mmHg 84%
17:00 +4°C° 0 mm 6 mps 739 mmHg 84%
18:00 +5°C° 0 mm 5 mps 740 mmHg 85%
19:00 +5°C° 0 mm 5 mps 740 mmHg 87%
20:00 +5°C° 0 mm 4 mps 741 mmHg 88%
21:00 +5°C° 0 mm 4 mps 742 mmHg 87%
22:00 +5°C° 0 mm 4 mps 742 mmHg 87%
23:00 +4°C° 0 mm 3 mps 742 mmHg 87%

22 April, Thursday

Time Temperature Precipitation Wind Pressure Humidity
00:00 +4°C° 0 mm 3 mps 743 mmHg 86%
01:00 +4°C° 0 mm 3 mps 743 mmHg 85%
02:00 +4°C° 0 mm 3 mps 743 mmHg 84%
03:00 +4°C° 0 mm 3 mps 744 mmHg 83%
04:00 +5°C° 0 mm 2 mps 744 mmHg 83%
05:00 +5°C° 0 mm 2 mps 744 mmHg 82%
06:00 +5°C° 0 mm 3 mps 745 mmHg 79%
07:00 +7°C° 0 mm 3 mps 745 mmHg 75%
08:00 +8°C° 0 mm 3 mps 746 mmHg 72%
09:00 +9°C° 0 mm 3 mps 746 mmHg 67%
10:00 +10°C° 0 mm 4 mps 746 mmHg 62%
11:00 +11°C° 0 mm 4 mps 747 mmHg 58%
12:00 +11°C° 0.1 mm 4 mps 747 mmHg 58%
13:00 +12°C° 0.1 mm 4 mps 747 mmHg 58%
14:00 +12°C° 0.1 mm 4 mps 747 mmHg 57%
15:00 +12°C° 0.1 mm 4 mps 747 mmHg 60%
16:00 +12°C° 0.1 mm 3 mps 747 mmHg 62%
17:00 +12°C° 0.1 mm 3 mps 747 mmHg 64%
18:00 +11°C° 0.1 mm 3 mps 747 mmHg 68%
19:00 +10°C° 0.1 mm 3 mps 748 mmHg 72%
20:00 +8°C° 0.1 mm 2 mps 748 mmHg 75%
21:00 +8°C° 0 mm 2 mps 748 mmHg 76%
22:00 +8°C° 0 mm 2 mps 748 mmHg 78%
23:00 +7°C° 0 mm 2 mps 748 mmHg 79%
Show more

We Need Your Consent

Meteoprog and our Service Providers may store and access personal data such as cookies, device identifiers or other similar technologies on your device and process such data to personalise content and ads, as well as provide social media features and to analyse the traffic.

  • Store and/or access information on your device

    Cookies, device identifiers or other information can be stored or accessed on your device for the purposes indicated above.

  • Personalised ads and content, ad and content measurement, audience insights, and products development

    Ads and content can be personalised based on a profile. More data can be added to better personalise ads and content. Ad and content performance can be measured. Insights about the audience who saw the ads and content can be derived. Such data can be used to develop or improve user’s experience, systems and software.

By clicking ‘I Agree’ you will allow the use of indicated cookies, device identifiers, web beacons or other similar technologies. Your settings can be changed in the browser on your device.

For certain purposes, legitimate interests may be relied on, rather than consent. You can read more about this in our Privacy and Cookie Policy.